When you browse on this site, cookies collect data to enhance your experience and personalize the content and advertising you see.
Visit our Privacy Policy to learn more. By continuing to use the site, you agree to this use of cookies and data.
  • In United Kingdom
  • List of Countries
  • For 7 days
  • Water Temperature
  • Satellite Maps
  • Weather Map
  • Weather Widgets
  • user-avatar
    Login

    Hourly Weather Abingdon

    Today, 17 January, Thursday

    Time Temperature Precipitation Wind Pressure Humidity
    00:00 +2°C° 0 mm 3 mps 746 mmHg 92%
    01:00 +3°C° 0.6 mm 4 mps 746 mmHg 91%
    02:00 +2°C° 0.6 mm 5 mps 746 mmHg 91%
    03:00 +2°C° 0.6 mm 6 mps 746 mmHg 90%
    04:00 +2°C° 0 mm 5 mps 747 mmHg 90%
    05:00 +1°C° 0 mm 5 mps 748 mmHg 90%
    06:00 0°C° 0 mm 5 mps 749 mmHg 90%
    07:00 0°C° 0 mm 5 mps 750 mmHg 88%
    08:00 0°C° 0 mm 5 mps 751 mmHg 86%
    09:00 0°C° 0 mm 5 mps 752 mmHg 84%
    10:00 -1°C° 0 mm 6 mps 753 mmHg 77%
    11:00 +1°C° 0 mm 6 mps 753 mmHg 69%
    12:00 +1°C° 0 mm 6 mps 754 mmHg 62%
    13:00 +2°C° 0 mm 6 mps 755 mmHg 63%
    14:00 +2°C° 0 mm 5 mps 755 mmHg 64%
    15:00 +3°C° 0 mm 4 mps 756 mmHg 65%
    16:00 +1°C° 0 mm 4 mps 756 mmHg 69%
    17:00 +1°C° 0 mm 3 mps 756 mmHg 72%
    18:00 -1°C° 0 mm 3 mps 757 mmHg 76%
    19:00 -1°C° 0 mm 2 mps 757 mmHg 75%
    20:00 -1°C° 0 mm 2 mps 757 mmHg 75%
    21:00 -1°C° 0 mm 2 mps 758 mmHg 75%
    22:00 -1°C° 0 mm 2 mps 758 mmHg 74%
    23:00 +1°C° 0 mm 1 mps 758 mmHg 74%

    Tomorrow, 18 January, Friday

    Time Temperature Precipitation Wind Pressure Humidity
    00:00 +1°C° 0 mm 1 mps 758 mmHg 74%
    01:00 +1°C° 0 mm 1 mps 758 mmHg 73%
    02:00 +1°C° 0 mm 1 mps 758 mmHg 73%
    03:00 +1°C° 0 mm 1 mps 758 mmHg 72%
    04:00 +1°C° 0 mm 1 mps 758 mmHg 72%
    05:00 -1°C° 0 mm 2 mps 757 mmHg 73%
    06:00 -1°C° 0 mm 2 mps 757 mmHg 73%
    07:00 -1°C° 0 mm 3 mps 757 mmHg 73%
    08:00 0°C° 0 mm 3 mps 757 mmHg 74%
    09:00 0°C° 0 mm 3 mps 756 mmHg 74%
    10:00 0°C° 0 mm 4 mps 756 mmHg 71%
    11:00 +2°C° 0 mm 5 mps 756 mmHg 68%
    12:00 +3°C° 0 mm 5 mps 756 mmHg 65%
    13:00 +3°C° 0.1 mm 5 mps 755 mmHg 67%
    14:00 +3°C° 0.1 mm 5 mps 755 mmHg 70%
    15:00 +2°C° 0.1 mm 5 mps 754 mmHg 72%
    16:00 +2°C° 0.3 mm 5 mps 754 mmHg 73%
    17:00 +2°C° 0.3 mm 5 mps 753 mmHg 74%
    18:00 +1°C° 0.3 mm 5 mps 753 mmHg 75%
    19:00 +1°C° 0.1 mm 5 mps 753 mmHg 76%
    20:00 +1°C° 0.1 mm 6 mps 753 mmHg 78%
    21:00 +2°C° 0.1 mm 6 mps 752 mmHg 79%
    22:00 +2°C° 0.2 mm 6 mps 752 mmHg 82%
    23:00 +2°C° 0.2 mm 6 mps 752 mmHg 84%

    Day after tomorrow, 19 January, Saturday

    Time Temperature Precipitation Wind Pressure Humidity
    00:00 +2°C° 0.2 mm 7 mps 751 mmHg 87%
    01:00 +2°C° 0.4 mm 6 mps 751 mmHg 89%
    02:00 +2°C° 0.4 mm 6 mps 751 mmHg 90%
    03:00 +2°C° 0.4 mm 6 mps 750 mmHg 91%
    04:00 +2°C° 0.1 mm 6 mps 750 mmHg 92%
    05:00 +3°C° 0.1 mm 5 mps 750 mmHg 94%
    06:00 +3°C° 0.1 mm 5 mps 749 mmHg 95%
    07:00 +3°C° 0 mm 5 mps 749 mmHg 95%
    08:00 +3°C° 0 mm 5 mps 749 mmHg 95%
    09:00 +3°C° 0 mm 5 mps 749 mmHg 95%
    10:00 +3°C° 0.4 mm 5 mps 749 mmHg 94%
    11:00 +5°C° 0.4 mm 5 mps 749 mmHg 93%
    12:00 +5°C° 0.4 mm 4 mps 749 mmHg 92%
    13:00 +6°C° 0.2 mm 4 mps 749 mmHg 91%
    14:00 +6°C° 0.2 mm 4 mps 749 mmHg 91%
    15:00 +6°C° 0.2 mm 4 mps 749 mmHg 90%
    16:00 +5°C° 0 mm 3 mps 749 mmHg 92%
    17:00 +5°C° 0 mm 3 mps 749 mmHg 94%
    18:00 +4°C° 0 mm 3 mps 750 mmHg 96%
    19:00 +4°C° 0.1 mm 3 mps 750 mmHg 96%
    20:00 +4°C° 0.1 mm 3 mps 750 mmHg 96%
    21:00 +4°C° 0.1 mm 3 mps 750 mmHg 97%
    22:00 +4°C° 0.1 mm 2 mps 751 mmHg 97%
    23:00 +4°C° 0.1 mm 2 mps 751 mmHg 97%

    20 January, Sunday

    Time Temperature Precipitation Wind Pressure Humidity
    00:00 +5°C° 0.1 mm 1 mps 751 mmHg 97%
    01:00 +5°C° 0 mm 1 mps 752 mmHg 97%
    02:00 +6°C° 0 mm 1 mps 752 mmHg 97%
    03:00 +6°C° 0 mm 1 mps 752 mmHg 97%
    04:00 +5°C° 0 mm 1 mps 753 mmHg 97%
    05:00 +4°C° 0 mm 2 mps 753 mmHg 97%
    06:00 +3°C° 0 mm 2 mps 754 mmHg 96%
    07:00 +3°C° 0 mm 2 mps 754 mmHg 96%
    08:00 +3°C° 0 mm 2 mps 755 mmHg 95%
    09:00 +2°C° 0 mm 3 mps 756 mmHg 95%
    10:00 +3°C° 0 mm 3 mps 756 mmHg 92%
    11:00 +4°C° 0 mm 3 mps 757 mmHg 90%
    12:00 +5°C° 0 mm 3 mps 757 mmHg 87%
    13:00 +5°C° 0 mm 3 mps 758 mmHg 86%
    14:00 +5°C° 0 mm 3 mps 758 mmHg 85%
    15:00 +5°C° 0 mm 3 mps 759 mmHg 84%
    16:00 +5°C° 0 mm 3 mps 759 mmHg 87%
    17:00 +4°C° 0 mm 4 mps 760 mmHg 90%
    18:00 +4°C° 0 mm 4 mps 761 mmHg 93%
    19:00 +2°C° 0 mm 5 mps 761 mmHg 90%
    20:00 +2°C° 0 mm 5 mps 762 mmHg 88%
    21:00 +2°C° 0 mm 6 mps 763 mmHg 85%
    22:00 +1°C° 0 mm 5 mps 763 mmHg 85%
    23:00 0°C° 0 mm 5 mps 763 mmHg 84%

    21 January, Monday

    Time Temperature Precipitation Wind Pressure Humidity
    00:00 -1°C° 0 mm 4 mps 764 mmHg 83%
    01:00 -1°C° 0 mm 4 mps 764 mmHg 83%
    02:00 -1°C° 0 mm 3 mps 764 mmHg 84%
    03:00 -1°C° 0 mm 3 mps 764 mmHg 84%
    04:00 -1°C° 0 mm 3 mps 764 mmHg 84%
    05:00 -2°C° 0 mm 3 mps 764 mmHg 85%
    06:00 -2°C° 0 mm 3 mps 764 mmHg 85%
    07:00 -2°C° 0 mm 2 mps 764 mmHg 84%
    08:00 -1°C° 0 mm 2 mps 764 mmHg 82%
    09:00 -1°C° 0 mm 2 mps 764 mmHg 81%
    10:00 +1°C° 0 mm 2 mps 764 mmHg 76%
    11:00 +2°C° 0 mm 2 mps 764 mmHg 70%
    12:00 +4°C° 0 mm 2 mps 763 mmHg 65%
    13:00 +4°C° 0 mm 2 mps 762 mmHg 67%
    14:00 +4°C° 0 mm 2 mps 761 mmHg 69%
    15:00 +4°C° 0 mm 2 mps 760 mmHg 71%
    16:00 +2°C° 0 mm 3 mps 760 mmHg 75%
    17:00 +1°C° 0 mm 3 mps 759 mmHg 80%
    18:00 -1°C° 0 mm 4 mps 758 mmHg 84%
    19:00 0°C° 0.1 mm 4 mps 757 mmHg 83%
    20:00 0°C° 0.1 mm 5 mps 755 mmHg 83%
    21:00 +1°C° 0.1 mm 5 mps 754 mmHg 82%
    22:00 +1°C° 0.6 mm 6 mps 752 mmHg 85%
    23:00 +2°C° 0.6 mm 6 mps 750 mmHg 87%

    22 January, Tuesday

    Time Temperature Precipitation Wind Pressure Humidity
    00:00 +2°C° 0.6 mm 6 mps 749 mmHg 90%
    01:00 +2°C° 1.3 mm 7 mps 747 mmHg 90%
    02:00 +2°C° 1.3 mm 7 mps 746 mmHg 91%
    03:00 +3°C° 1.3 mm 7 mps 744 mmHg 91%
    04:00 +2°C° 1.1 mm 7 mps 744 mmHg 90%
    05:00 0°C° 1.1 mm 7 mps 743 mmHg 90%
    06:00 -1°C° 1.1 mm 7 mps 743 mmHg 89%
    07:00 -1°C° 0.6 mm 7 mps 742 mmHg 90%
    08:00 -1°C° 0.6 mm 6 mps 742 mmHg 91%
    09:00 -1°C° 0.6 mm 6 mps 742 mmHg 92%
    10:00 -1°C° 0.5 mm 6 mps 742 mmHg 91%
    11:00 -1°C° 0.5 mm 7 mps 742 mmHg 91%
    12:00 -1°C° 0.5 mm 7 mps 742 mmHg 91%
    13:00 -1°C° 0.7 mm 7 mps 742 mmHg 91%
    14:00 -1°C° 0.7 mm 8 mps 742 mmHg 91%
    15:00 -1°C° 0.7 mm 8 mps 742 mmHg 91%
    16:00 -1°C° 0.6 mm 8 mps 742 mmHg 91%
    17:00 -1°C° 0.6 mm 8 mps 742 mmHg 91%
    18:00 -1°C° 0.6 mm 8 mps 742 mmHg 91%
    19:00 -1°C° 0.3 mm 8 mps 742 mmHg 93%
    20:00 -1°C° 0.3 mm 7 mps 743 mmHg 94%
    21:00 -1°C° 0.3 mm 7 mps 743 mmHg 96%
    22:00 -1°C° 0 mm 6 mps 744 mmHg 97%
    23:00 0°C° 0 mm 5 mps 744 mmHg 98%
    Show more